Track STARLINK-1496 now! 10-day predictions STARLINK-1496 is classified as:
1 45780U 20038BC 21017.85964740 -.00001221 00000-0 -64661-4 0 9996 2 45780 52.9903 342.0674 0001839 69.2436 290.8749 15.05577488 33860